Search flights

Caselle Airport, Torino (LIMF)

Airport Weather & NOTAM's

METAR for:LIMF (Torino/Caselle Arpt, TO, IT)
Text:LIMF 172050Z 34009KT CAVOK 13/M08 Q1006
Conditions at:2050 UTC 17 Apr 2024
Temperature: 13.0°C ( 55°F)
Dewpoint: -8.0°C ( 18°F) [RH = 22%]
Pressure (altimeter):29.70 inches Hg (1006.0 mb)
Winds:from the NNW (340 degrees) at 10 MPH (9 knots; 4.6 m/s)
Visibility:6 or more sm (10+ km)
Ceiling:ceiling and visibility are OK
Clouds:unknown
TAF for:LIMF (Torino/Caselle Arpt, TO, IT) issued at 1700 UTC 17 Apr 2024
Text:TAF LIMF 171700Z 1718/1818 30015KT 9999 FEW050
Forecast period:1800 to 1900 UTC 17 April 2024
Forecast type:FROM: standard forecast or significant change
Winds:from the WNW (300 degrees) at 17 MPH (15 knots; 7.7 m/s)
Visibility:6 or more sm (10+ km)
Ceiling:at least 12,000 feet AGL
Clouds:few clouds at 5000 feet AGL
Text:BECMG 1719/1721 VRB05KT
Forecast period:1900 UTC 17 April 2024 to 0900 UTC 18 April 2024
Forecast type:BECOMING: Conditions expected to become as follows by 2100 UTC 17 April 2024
Winds:variable direction winds at 6 MPH (5 knots; 2.6 m/s)
Visibility:6 or more sm (10+ km)
Ceiling:at least 12,000 feet AGL
Clouds:few clouds at 5000 feet AGL
Text:BECMG 1809/1811 02010KT
Forecast period:0900 to 1600 UTC 18 April 2024
Forecast type:BECOMING: Conditions expected to become as follows by 1100 UTC 18 April 2024
Winds:from the NNE (20 degrees) at 12 MPH (10 knots; 5.1 m/s)
Visibility:6 or more sm (10+ km)
Ceiling:at least 12,000 feet AGL
Clouds:few clouds at 5000 feet AGL
Text:TEMPO 1810/1816 TSRA
Forecast period:1000 to 1600 UTC 18 April 2024
Forecast type:TEMPORARY: The following changes expected for less than half the time period
Weather:TSRA (rain associated with thunderstorm(s))
Text:BECMG 1816/1818 VRB05KT
Forecast period:1600 to 1800 UTC 18 April 2024
Forecast type:BECOMING: Conditions expected to become as follows by 1800 UTC 18 April 2024
Winds:variable direction winds at 6 MPH (5 knots; 2.6 m/s)
Visibility:6 or more sm (10+ km)
Ceiling:at least 12,000 feet AGL
Clouds:few clouds at 5000 feet AGL

Live Departures & Arrivals

There are currently no arrivals or departures for this airport.

Departures History (last 12 months)

Flight No. Dest. Aircraft Date
BM119 LOWI B737-800X... 2024-01-31 13:06:58
CHARTER LIRN FenixA320... 2024-01-30 19:47:19
BM5014 LIEE PMDG 737-8... 2024-01-24 21:33:18
SICBM1395 LICC FenixA320... 2023-12-26 16:24:54
SIC0103 LIPE PMDG 737-7... 2023-12-23 18:42:12
BM119 LIRQ Money M20R... 2023-12-20 11:33:18
SIC1117 LICJ PMDG 737-8... 2023-12-14 17:07:41
SIC0103 LIBR PMDG 737-7... 2023-12-13 21:30:38
SIC0038 LIEO Cessna Cit... 2023-12-10 15:21:27
LIMF_TWR LIMF C172 2023-12-10 13:48:00
SIC0038 EPWA Cessna Cit... 2023-11-25 11:30:56
SIC0006 LIRF FenixA320... 2023-11-12 22:22:17
SIC0038 LFLJ Cessna 208... 2023-11-04 16:26:14
SIC0133 LICC Airbus A32... 2023-11-01 20:29:20
SIC LICC FenixA320... 2023-11-01 20:37:06
SIC0868 LICJ FenixA320... 2023-10-30 06:04:17
SIC0701 LTFM PMDG 737-8... 2023-10-29 17:52:21
SIC0701 LICC PMDG 737-8... 2023-10-29 22:22:06
SICBM1025 LICJ Airbus A32... 2023-10-22 19:33:46
SIC0649 LIRA CJ4 Citati... 2023-10-08 05:03:25
BM1955 LIPE Black Squa... 2023-10-07 14:16:58
SIC0904 LIRN CRJ1000 AI... 2023-09-11 19:45:01
SIC0054 LIRN PMDG 737-8... 2023-09-11 19:32:35
SIC0103 LXGB PMDG 737-7... 2023-09-10 13:26:30
SIC0103 LICJ PMDG 737-7... 2023-08-28 17:28:12
SIC0107 LICJ FenixA320... 2023-08-17 14:31:09
SIC0133 LICJ A20N 2023-08-14 19:15:00
SIC0904 LICC PMDG 737-8... 2023-08-07 07:42:26
BM1025 LICJ Airbus A32... 2023-08-07 08:03:46
SICBM1615 LIRF FenixA320... 2023-07-29 10:07:19
SIC0748 LEPA CRJ1000 AI... 2023-07-10 20:09:07
SIC0103 LIPE King Air 3... 2023-07-10 19:25:55
LIMF_GND LIMF C172 2023-07-06 11:35:00
BMI0982 LIMF ATR 42-600... 2023-06-30 20:46:36
SIC0023 LIRN TBM 930 As... 2023-06-25 13:42:16
SICBM1395 LICC B738 2023-06-21 19:20:00
SIC0126 LICC PMDG 737-9... 2023-06-19 19:08:45
SIC0044 LICC PMDG 737-8... 2023-06-19 18:53:52
BM1395 LICC PMDG 737-8... 2023-06-19 19:09:23
SIC0103 LIML Orbx P-750... 2023-06-12 14:29:49
SIC0103 EDDV PMDG 737-8... 2023-06-05 16:12:05
LIMF_GND LIMF C172 2023-06-09 09:41:00
SIC0649 LIEO CJ4 Citati... 2023-05-29 06:58:57
SIC465 LIME SR 22 Live... 2023-05-26 19:33:43
1 LICC Cessna Lon... 2023-05-26 12:57:00
BMV0982 LIMF C152 - AIR... 2023-05-23 21:28:00
1 LICC Cessna Lon... 2023-05-23 12:44:09
SIC0598 LIRQ PC12 AIR S... 2023-05-20 11:14:53
SIC0103 LIRZ King Air 3... 2023-05-20 21:54:45
SIC1117 LIRF B737-800X... 2023-05-16 12:57:17
SIC0023 LICC FenixA320... 2023-05-13 15:30:04
BMV0115 LILE Cessna 152... 2023-05-05 16:20:47
SICO598 LFLL PMDG 737-8... 2023-05-01 10:52:53
SIC0103 LILN A36TC Bona... 2023-05-01 16:12:17
BMV0001 LILN PC12 AIR S... 2023-05-01 17:37:09
SIC0900 LIMG PC12 CHRON... 2023-04-28 19:38:10
BM119 LIMG A36TC Bona... 2023-04-28 20:14:07
SIC0598 LIMG PC12 AIR S... 2023-04-23 14:01:38
SIC0900 LEPA FenixA320... 2023-04-22 18:55:50
VFR000 LIMJ PAQ28R 2023-04-20 20:02:00
SIC0998 LIMJ C172 2023-04-19 20:21:00
SIC0904 LIMJ Carenado P... 2023-04-19 21:26:59
SIC0701 LIMJ C172 2023-04-19 20:17:00
BMV0104 LIMJ Cessna Sky... 2023-04-19 19:36:37
BMV0023 LIMJ Cessna 152... 2023-04-19 19:01:14

Arrivals History (last 12 months)

Flight No. Origin Aircraft Date
SPP-TR10 LFMN PMDG 737-8... 2024-03-29 21:44:17
BM3024 LIRN PMDG 737-8... 2024-02-25 22:48:20
SPP-TR10 LFMN Airbus A32... 2024-02-01 19:47:52
LIMF_TWR LIMF C172 2023-12-10 16:42:00
SIC204 LICJ Airbus A32... 2023-12-01 22:41:39
SPP-TR10 LFMN PMDG 737-8... 2023-11-25 00:55:50
SIC0701 LFMN PMDG 737-8... 2023-11-25 00:55:51
SIC0133 LIEO Airbus A32... 2023-11-18 21:43:09
SIC0107 LIEO Airbus A32... 2023-11-18 21:46:09
SIC2679 LICJ Airbus A32... 2023-11-11 15:05:17
SPP-TR10 LFMN FenixA320... 2023-11-05 07:28:54
SIC0038 LICC Airbus A32... 2023-11-04 07:59:22
SI0701 LIEE PMDG 737-8... 2023-10-28 22:03:44
SPP-TR10 LFMN A32N 2023-10-25 07:28:00
SPP-TR10 LFMN Airbus A32... 2023-10-23 18:28:34
SICBM1610 LIRF Airbus A32... 2023-10-22 15:30:18
SIC104 LICC NA 2023-10-22 18:36:50
SPP-TR10 LFMN PMDG 737-8... 2023-10-18 23:41:03
SIC1610 LIRF PMDG 737-8... 2023-10-07 09:25:22
SICSICLEG3 LIME Black Squa... 2023-10-06 16:15:22
SPP-TR10 LFMN PMDG 737-8... 2023-09-28 18:30:05
SIC0868 LFMN FenixA320... 2023-09-28 08:22:54
SPP-TR10 LFMN PMDG 737-8... 2023-09-27 13:30:17
SIC0107 LICJ FenixA320... 2023-09-11 18:02:12
SIC0904 EHRD PMDG 737-8... 2023-09-05 21:02:33
BM5013 LIBR Airbus A32... 2023-08-05 21:07:56
SIC0649 LEMD CJ4 Citati... 2023-08-03 07:39:03
1 LIPO Airbus A32... 2023-08-01 20:09:25
SIC0904 LIRA FenixA320... 2023-07-31 22:21:12
SICBM1020 LICJ FenixA320... 2023-07-25 21:43:52
SIC0701 LFBK B738 2023-07-23 13:53:00
SIC0701 LGAV PMDG 737-8... 2023-07-22 23:28:22
SIC2679 LIRF FenixA320... 2023-07-20 17:30:19
BM1390 LICC FenixA320... 2023-07-10 18:12:42
LIMF_GND LIMF C172 2023-07-06 13:40:00
BM1020 LICJ FenixA320... 2023-07-01 12:12:50
BMI0982 LIMF ATR 42-600... 2023-06-30 22:22:58
BM1020 LICJ Cessna Lon... 2023-06-29 22:23:42
1 LRIA Cessna Lon... 2023-06-25 15:36:38
BMV005 LIMJ C152 JP AI... 2023-06-24 16:39:22
SIC0103 LFKB PMDG 737-8... 2023-06-22 13:15:32
SIC0103 LFBO PMDG 737-7... 2023-06-10 20:27:40
LIMF_GND LIMF C172 2023-06-09 11:44:00
SIC0598 LFRS PMDG 737-8... 2023-05-29 19:48:04
SIC0103 LICJ TBM 930 AI... 2023-05-28 19:03:20
SIC0049 LIRF TBM 930 As... 2023-05-23 13:34:08
BMV0982 LIMF C152 - AIR... 2023-05-23 22:26:00
SIC0649 EDDC CJ4 Citati... 2023-05-22 09:39:38
SIC0103 LEJR PMDG 737-7... 2023-05-20 21:42:08
SIC0598 EGNT PMDG 737-8... 2023-05-14 13:29:37
SIC0023 LIBC FenixA320... 2023-05-12 22:07:15
BM119 LIMG A36TC Bona... 2023-04-29 12:26:25
SIC0900 LIMG PC12 CHRON... 2023-04-28 21:06:56
SIC0900 LFBH FenixA320... 2023-04-27 21:18:02
SIC0598 LIMG PC12 AIR S... 2023-04-25 18:56:44
SIC0598 LFBH PMDG 737-8... 2023-04-22 18:19:30

Runway Information (Airport elevation: 958ft)

Runway 18 Length 10,843ft Width 197ft Elevation 958ft Surface Asphalt Heading 183
Runway 36 Length 10,843ft Width 197ft Elevation 958ft Surface Asphalt Heading 3

Airport Frequencies

Type APP/DEP Frequency 125.275 Mhz
Type APP/DEP Frequency 129.275 Mhz
Type ATIS Frequency 120.480 Mhz
Type Ground Frequency 121.705 Mhz
Type Tower Frequency 118.500 Mhz
Type Tower Frequency 121.705 Mhz
Type CTR Frequency 125.275 Mhz
Type CTR Frequency 129.275 Mhz

Airport Navaids

Type TACAN Ident CAS Frequency 109500 Khz
Type NDB Ident CAS Frequency 357 Khz
Type VOR-DME Ident CSL Frequency 116750 Khz
Type VOR-DME Ident TOP Frequency 114500 Khz
Type NDB Ident TOP Frequency 393 Khz